WZZ17MM EHAM-EBBR

Flight info

Callsign WZZ17MM
Flight time 0h 24m
Altitude 12000
Route WOODY
Aircraft A20N/M-V/N

Departure

Time 2026-05-04 15:57
Airport Amsterdam Airport Schiphol (EHAM)

Arrival

Time 2026-05-04 16:22
Airport Brussels Airport (EBBR)
Time Latitude Longitude Altitude Speed Heading
2026-05-04 15:39 52.30709 4.76952 8 ft 0 kts 40°
2026-05-04 15:42 52.30701 4.76943 8 ft 2 kts 21°
2026-05-04 15:42 52.30687 4.76932 8 ft 2 kts 32°
2026-05-04 15:42 52.30674 4.76920 9 ft 2 kts 28°
2026-05-04 15:43 52.30661 4.76909 8 ft 1 kts 30°
2026-05-04 15:43 52.30657 4.76905 8 ft 0 kts 62°
2026-05-04 15:43 52.30656 4.76898 8 ft 1 kts 98°
2026-05-04 15:43 52.30656 4.76891 8 ft 0 kts 94°
2026-05-04 15:46 52.30656 4.76903 8 ft 3 kts 94°
2026-05-04 15:46 52.30653 4.76967 8 ft 6 kts 94°
2026-05-04 15:46 52.30650 4.77049 8 ft 7 kts 93°
2026-05-04 15:47 52.30647 4.77147 8 ft 9 kts 92°
2026-05-04 15:47 52.30644 4.77281 8 ft 13 kts 92°
2026-05-04 15:47 52.30640 4.77455 8 ft 17 kts 92°
2026-05-04 15:47 52.30708 4.77593 7 ft 18 kts
2026-05-04 15:48 52.30841 4.77606 9 ft 19 kts
2026-05-04 15:48 52.30994 4.77621 9 ft 23 kts
2026-05-04 15:48 52.31342 4.77655 2 ft 27 kts
2026-05-04 15:49 52.31519 4.77550 1 ft 27 kts 312°
2026-05-04 15:49 52.31575 4.77283 1 ft 25 kts 268°
2026-05-04 15:49 52.31567 4.76998 0 ft 25 kts 266°
2026-05-04 15:49 52.31556 4.76705 -1 ft 25 kts 267°
2026-05-04 15:50 52.31544 4.76421 -2 ft 25 kts 269°
2026-05-04 15:50 52.31540 4.76141 -2 ft 24 kts 266°
2026-05-04 15:50 52.31527 4.75874 -1 ft 23 kts 267°
2026-05-04 15:50 52.31520 4.75627 2 ft 21 kts 269°
2026-05-04 15:51 52.31514 4.75385 0 ft 21 kts 268°
2026-05-04 15:51 52.31502 4.75131 -1 ft 22 kts 265°
2026-05-04 15:51 52.31493 4.74851 -3 ft 25 kts 266°
2026-05-04 15:51 52.31482 4.74547 -7 ft 27 kts 266°
2026-05-04 15:52 52.31502 4.74298 -6 ft 18 kts 330°
2026-05-04 15:52 52.31610 4.74301 -7 ft 16 kts 360°
2026-05-04 15:52 52.31732 4.74308 -7 ft 19 kts
2026-05-04 15:52 52.31876 4.74326 -7 ft 21 kts
2026-05-04 15:53 52.32017 4.74316 -7 ft 19 kts 317°
2026-05-04 15:53 52.32035 4.74105 -7 ft 19 kts 275°
2026-05-04 15:53 52.32044 4.73885 -5 ft 19 kts 273°
2026-05-04 15:53 52.32050 4.73664 -4 ft 20 kts 273°
2026-05-04 15:54 52.32065 4.73423 -4 ft 24 kts 291°
2026-05-04 15:54 52.32211 4.73183 -7 ft 34 kts 319°
2026-05-04 15:54 52.32386 4.72935 -7 ft 31 kts 319°
2026-05-04 15:54 52.32547 4.72708 -5 ft 29 kts 320°
2026-05-04 15:55 52.32692 4.72493 -4 ft 27 kts 312°
2026-05-04 15:55 52.32816 4.72267 -4 ft 26 kts 311°
2026-05-04 15:55 52.32935 4.72042 -4 ft 27 kts 313°
2026-05-04 15:55 52.33065 4.71806 -7 ft 27 kts 312°
2026-05-04 15:56 52.33147 4.71608 -7 ft 18 kts 279°
2026-05-04 15:56 52.33147 4.71401 -7 ft 21 kts 302°
2026-05-04 15:56 52.33260 4.71181 -7 ft 28 kts 313°
2026-05-04 15:56 52.33432 4.70945 -7 ft 40 kts 353°
2026-05-04 15:57 52.33966 4.70991 -7 ft 114 kts
2026-05-04 15:57 52.34952 4.71090 152 ft 160 kts
2026-05-04 15:57 52.36050 4.71226 946 ft 159 kts
2026-05-04 15:57 52.37120 4.71322 1803 ft 156 kts
2026-05-04 15:58 52.38171 4.71382 2505 ft 158 kts
2026-05-04 15:58 52.39324 4.71496 3007 ft 174 kts
2026-05-04 15:58 52.40533 4.71995 3496 ft 191 kts 31°
2026-05-04 15:58 52.41416 4.73704 3997 ft 211 kts 67°
2026-05-04 15:59 52.41488 4.76138 4639 ft 225 kts 105°
2026-05-04 15:59 52.40698 4.78342 5443 ft 229 kts 126°
2026-05-04 15:59 52.39714 4.80370 6266 ft 232 kts 137°
2026-05-04 15:59 52.38310 4.81579 7049 ft 235 kts 166°
2026-05-04 16:00 52.36655 4.82039 7777 ft 246 kts 174°
2026-05-04 16:00 52.34951 4.82370 8622 ft 252 kts 174°
2026-05-04 16:00 52.33241 4.82755 9527 ft 255 kts 173°
2026-05-04 16:00 52.31433 4.83207 10161 ft 271 kts 172°
2026-05-04 16:01 52.29517 4.83723 10712 ft 290 kts 172°
2026-05-04 16:01 52.27476 4.84274 11234 ft 308 kts 173°
2026-05-04 16:01 52.25277 4.84658 11728 ft 326 kts 177°
2026-05-04 16:01 52.22952 4.84758 12182 ft 344 kts 181°
2026-05-04 16:02 52.20517 4.84714 12658 ft 359 kts 182°
2026-05-04 16:02 52.17995 4.84655 12912 ft 362 kts 182°
2026-05-04 16:02 52.12981 4.84548 12943 ft 363 kts 182°
2026-05-04 16:03 52.10458 4.84496 12944 ft 363 kts 182°
2026-05-04 16:03 52.07915 4.84441 12930 ft 363 kts 181°
2026-05-04 16:03 52.05398 4.84378 12941 ft 363 kts 183°
2026-05-04 16:03 52.02938 4.83668 12928 ft 361 kts 202°
2026-05-04 16:04 52.00663 4.81956 12949 ft 361 kts 206°
2026-05-04 16:04 51.96124 4.78420 12938 ft 361 kts 206°
2026-05-04 16:04 51.93880 4.76693 12941 ft 360 kts 206°
2026-05-04 16:05 51.91608 4.74955 12933 ft 360 kts 206°
2026-05-04 16:05 51.89344 4.73231 12931 ft 360 kts 206°
2026-05-04 16:05 51.84821 4.69800 12928 ft 361 kts 206°
2026-05-04 16:06 51.82546 4.68079 12938 ft 362 kts 206°
2026-05-04 16:06 51.76467 4.63493 12937 ft 362 kts 206°
2026-05-04 16:07 51.73396 4.61182 12915 ft 363 kts 206°
2026-05-04 16:07 51.66456 4.56351 12926 ft 365 kts 200°
2026-05-04 16:08 51.64012 4.54997 12930 ft 388 kts 200°
2026-05-04 16:08 51.56091 4.50584 12900 ft 407 kts 200°
2026-05-04 16:09 51.50737 4.47553 12894 ft 410 kts 200°
2026-05-04 16:09 51.45368 4.44509 12927 ft 412 kts 200°
2026-05-04 16:10 51.39948 4.41440 12937 ft 413 kts 200°
2026-05-04 16:11 51.31853 4.36872 12775 ft 412 kts 200°
2026-05-04 16:11 51.29166 4.35356 12474 ft 410 kts 200°
2026-05-04 16:12 51.21173 4.30864 11090 ft 402 kts 199°
2026-05-04 16:12 51.13309 4.26461 10296 ft 399 kts 199°
2026-05-04 16:13 51.08114 4.23560 9927 ft 396 kts 199°
2026-05-04 16:13 51.02949 4.20681 8969 ft 391 kts 199°
2026-05-04 16:14 50.97879 4.17863 8045 ft 386 kts 199°
2026-05-04 16:14 50.92840 4.15071 7143 ft 380 kts 199°
2026-05-04 16:15 50.85294 4.15639 5218 ft 360 kts 162°
2026-05-04 16:16 50.80566 4.17819 3035 ft 355 kts 163°
2026-05-04 16:16 50.75764 4.25431 1969 ft 330 kts 109°
2026-05-04 16:17 50.74274 4.31583 1956 ft 270 kts 112°
2026-05-04 16:18 50.74957 4.38715 1961 ft 226 kts 45°
2026-05-04 16:18 50.76071 4.40287 1946 ft 204 kts 42°
2026-05-04 16:19 50.79097 4.44561 2031 ft 180 kts 42°
2026-05-04 16:19 50.81226 4.46110 1655 ft 159 kts 17°
2026-05-04 16:20 50.84205 4.47298 1079 ft 136 kts 15°
2026-05-04 16:20 50.86014 4.48043 736 ft 135 kts 15°
2026-05-04 16:21 50.88711 4.49146 215 ft 132 kts 14°
2026-05-04 16:22 50.90110 4.49708 137 ft 49 kts
2026-05-04 16:22 50.90363 4.49437 137 ft 12 kts 244°
2026-05-04 16:23 50.90269 4.49110 140 ft 12 kts 258°
2026-05-04 16:24 50.90400 4.48989 130 ft 0 kts 336°